Location: Martz Observatory
(42.0083°N, 79.0667°W)
Time: 20:22:01
(UTC-04:00)

Meteor 1-23 Rocket - Visible Passes

Search period start: 26 June 2016 00:00
Search period end: 06 July 2016 00:00
Orbit: 839 x 886 km, 81.3° (Epoch: 26 June)

Date Brightness Start Highest point End Pass type
(mag) Time Alt. Az. Time Alt. Az. Time Alt. Az.
26 Jun 6.2 03:21:58 10° NNE 03:26:44 26° ENE 03:31:26 10° SE visible
26 Jun 4.7 05:04:42 10° NNW 05:10:05 42° W 05:15:22 10° SSW visible
27 Jun 6.2 03:13:39 10° NNE 03:18:24 26° ENE 03:23:05 10° SE visible
27 Jun 4.7 04:56:23 10° NNW 05:01:46 43° W 05:07:03 10° SSW visible
28 Jun 6.2 03:05:22 10° NNE 03:10:04 26° ENE 03:14:43 10° SE visible
28 Jun 4.7 04:48:04 10° NNW 04:53:26 43° W 04:58:44 10° SSW visible
29 Jun 6.2 02:57:03 10° NNE 03:01:45 25° ENE 03:06:21 10° SE visible
29 Jun 4.7 04:39:44 10° NNW 04:45:07 44° W 04:50:25 10° SSW visible
30 Jun 6.2 02:48:45 10° NNE 02:53:25 25° ENE 02:58:01 10° SE visible
30 Jun 4.6 04:31:24 10° NNW 04:36:48 44° W 04:42:06 10° SSW visible
01 Jul 6.2 02:40:27 10° NNE 02:45:05 25° ENE 02:49:38 10° ESE visible
01 Jul 4.6 04:23:05 10° NNW 04:28:29 45° W 04:33:39 11° SSW visible
02 Jul 6.1 02:32:09 10° NNE 02:36:46 25° ENE 02:41:18 10° ESE visible
02 Jul 4.6 04:14:46 10° NNW 04:20:09 45° W 04:24:43 14° SSW visible
03 Jul 6.1 02:23:51 10° NNE 02:28:26 24° ENE 02:32:56 10° ESE visible
03 Jul 4.6 04:06:26 10° NNW 04:11:51 46° W 04:15:51 17° SSW visible
04 Jul 6.1 02:15:32 10° NNE 02:20:05 24° ENE 02:24:34 10° ESE visible
04 Jul 4.6 03:58:07 10° NNW 04:03:31 46° W 04:07:02 20° SSW visible
05 Jul 6.1 02:07:15 10° NNE 02:11:45 24° ENE 02:16:02 11° ESE visible
05 Jul 4.6 03:49:47 10° NNW 03:55:12 47° W 03:58:16 24° SSW visible
